Weather in Komsomol'skiy

Russia / Perm Krai     57°27′33″N   57°07′41″E
temp.,
°C
wind,
m/s
gust,
m/s
humid.,
%
clouds,
%
prec.,
mm/h
press.,
hPa
HPBL,
m
1 march, mon
mon123:00−16ene5109594 0.3 1012456
02:00−16ene489699 0.3 1014381
05:00−17ene379697 0.4 1015284
08:00−19ne369687 0.1 1016130
11:00−17ene349192 0.1 1018294
14:00−14e228596 0.0 1017382
17:00−13wnw129198 0.0 1017114
20:00−18sw129519 0.0 101620
2 march, tue
tue223:00−19sw239610 0.0 101620
02:00−19ssw349951 0.0 101463
05:00−19ssw5109772 0.0 1011245
08:00−18s61394100 0.0 1009378
11:00−15ssw71295100 0.6 1006474
14:00−13ssw71294100 1.3 1003625
17:00−12ssw61193100 2.1 1001643
20:00−12s61195100 1.1 999591
3 march, wed
wed323:00−11s51195100 2.1 998523
02:00−10s4995100 1.4 996495
05:00−9s3896100 3.1 995392
08:00−8sse2497100 1.4 994174
11:00−5wnw3494100 2.3 995299
14:00−5wnw349198 0.0 995419
17:00−4wnw348998 0.1 996541
20:00−6w2395100 0.1 99644
4 march, thu
thu423:00−6wsw4796100 0.7 997265
02:00−7wnw5994100 0.5 997364
05:00−13w479697 0.6 998111
08:00−15w479693 0.0 999109
11:00−11wsw579291 0.1 1000337
14:00−7wsw588898 0.1 1000772
17:00−6wsw698999 0.3 1000834
20:00−10ssw4109397 0.1 999221
5 march, fri
fri523:00−8s5139497 0.2 997547
02:00−7ssw71494100 0.8 993743
05:00−5ssw71494100 1.8 990720
08:00−3ssw51297100 1.4 986639
11:00−1w91395100 3.0 986914
14:00−5w91384100 0.5 9901140
17:00−6w91385100 0.7 9971067
20:00−10w61389100 0.1 1002686